Regional Weather Roundup
Issued by NWS

Home | Current Version | Previous Version | Graphics & Text | Print | Product List | Glossary On
Versions: 1 2 3 4 5 6 7 8 9 10 11 12 13 14 15 16 17 18 19 20 21 22 23 24 25 26 27 28 29 30 31 32 33 34 35 36 37 38 39 40 41 42 43 44 45 46 47 48 49 50
000
ASUS43 KMKX 200411
RWRWI

WISCONSIN REGIONAL WEATHER ROUNDUP
NATIONAL WEATHER SERVICE MILWAUKEE/SULLIVAN WI
1100 PM CDT TUE SEP 19 2017

NOTE: "FAIR" INDICATES FEW OR NO CLOUDS BELOW 12,000 FEET WITH NO
SIGNIFICANT WEATHER AND/OR OBSTRUCTIONS TO VISIBILITY.

WIZ001-002-006>008-014>016-023>028-200500-
NORTHWEST WISCONSIN

CITY           SKY/WX    TMP DP  RH WIND       PRES   REMARKS
SUPERIOR ARPT  CLEAR     61  60  96 NE6       29.74R
ASHLAND        PTCLDY    66  58  75 SE9G17    29.78F
HAYWARD        CLEAR     66  57  72 SE15G21   29.77F
SIREN          CLEAR     70  58  66 S14G25    29.72R
CUMBERLAND     PTCLDY    64  54  68 SE15G22   29.75S
RICE LAKE      PTCLDY    67  56  66 SE18G28   29.77F
CHETEK         PTCLDY    66  58  77 SE15G22   29.77F
LADYSMITH      CLOUDY    66  58  75 SE13G18   29.83F
EAU CLAIRE     CLOUDY    68  57  68 SE15      29.77F
MENOMONIE      CLOUDY    67  61  80 E9        29.75F
NEW RICHMOND   PTCLDY    70  61  73 SE12G18   29.71S
OSCEOLA        CLOUDY    70  62  74 SE15G21   29.72R
$$

WIZ003>005-009-010-017-018-200500-
NORTH CENTRAL WISCONSIN

CITY           SKY/WX    TMP DP  RH WIND       PRES   REMARKS
MANITOWISH WTR CLOUDY    60  58  92 SE12G21   29.88F
ARBOR VITAE    CLOUDY    62  56  82 SE12G18   29.90S
WOODRUFF       CLOUDY    62  56  82 SE12G18   29.90S
RHINELANDER    CLEAR     59  55  87 SE12      29.92F
EAGLE RIVER    CLEAR     58  53  82 SE8       29.91F
LAND O LAKES   CLEAR     58  55  89 SE12      29.93F
PHILLIPS       CLEAR     62  59  88 SE10G20   29.86F
TOMAHAWK         N/A     59  53  79 CALM      29.91S
MEDFORD        CLOUDY    61  57  86 SE9G16    29.88S
MERRILL        NOT AVBL
$$

WIZ029-030-035-036-043>047-200500-
CENTRAL WISCONSIN

CITY           SKY/WX    TMP DP  RH WIND       PRES   REMARKS
WAUSAU         CLEAR     61  57  87 SE9       29.90R
MOSINEE        CLEAR     61  59  94 SE6       29.92S
MARSHFIELD     CLEAR     63  58  83 SE12      29.87F
STEVENS POINT  PTCLDY    60  60  99 E6        29.91S
WAUPACA        CLEAR     64  62  94 E9        29.91F
WAUTOMA        CLEAR     62  61  96 E6        29.91S FOG
WISC RAPIDS    CLEAR     64  60  87 SE8       29.90S
CAMP DOUGLAS   MOCLDY    66  63  88 SE7       29.87R
$$

WIZ011>013-019>022-031-037>040-048>050-200500-
NORTHEAST WISCONSIN

CITY           SKY/WX    TMP DP  RH WIND       PRES   REMARKS
ANTIGO         CLEAR     56  54  92 SE12      29.93F
SHAWANO        CLEAR     61  56  83 CALM      29.94S
OCONTO         CLEAR     55  53  94 CALM      29.94S
STURGEON BAY   CLEAR     62  60  93 E5        29.95F
GREEN BAY      CLEAR     59  58  96 E5        29.93F
MANITOWOC      LGT RAIN  55  54  96 CALM      29.94F
APPLETON       PTCLDY    61  57  88 E6        29.92S
CLINTONVILLE   CLEAR     59  55  88 E3        29.92F
OSHKOSH        CLEAR     61  59  93 SE6       29.92S
$$

WIZ032>034-041-042-053>061-200500-
SOUTHWEST WISCONSIN

CITY           SKY/WX    TMP DP  RH WIND       PRES   REMARKS
LA CROSSE      CLOUDY    73  64  73 SE10      29.80F
SPARTA         CLOUDY    67  61  81 SE6       29.85S
VIROQUA        CLOUDY    67  64  93 SE9       29.86S
BOSCOBEL       CLEAR     69  64  84 VRB5      29.86R
PRAIRIE DU CHI CLEAR     70  61  73 SE7       29.84R
PLATTEVILLE    CLEAR     66  66  99 E8        29.88S
$$

WIZ056-057-062-063-064-067-068-200500-
SOUTH CENTRAL WISCONSIN

CITY           SKY/WX    TMP DP  RH WIND       PRES   REMARKS
REEDSBURG      CLEAR     66  65  96 SE6       29.88S
BARABOO/DELLS  CLEAR     66  60  82 SE9       29.89S
LONE ROCK      CLEAR     68  63  84 SE6       29.88R
MINERAL POINT  CLEAR     68  66  94 SE9       29.89S
MADISON        CLEAR     65  63  93 SE8       29.90S
MIDDLETON      CLEAR     67  63  87 SE9       29.91R
WATERTOWN      CLEAR     62  62 100 SE6       29.92R FOG
MONROE         CLEAR     64  61  88 SE8       29.90S
JANESVILLE     CLEAR     63  63 100 SE6       29.91S
$$

WIZ051-052-058>065-066-070>072-200500-
SOUTHEAST WISCONSIN

CITY           SKY/WX    TMP DP  RH WIND       PRES   REMARKS
MILWAUKEE      PTCLDY    63  63 100 CALM      29.94R FOG
WAUKESHA       PTCLDY    59  59 100 SE3       29.95S FOG
MILWAUKEE/TIMM MOCLDY    63  59  88 E3        29.95S HAZE
RACINE         PTCLDY    63  63 100 NE3       29.96R FOG
BURLINGTON     MOCLDY    62  62 100 E3        29.94S FOG
KENOSHA        FOG       61  60  97 CALM      29.94S VSB<1/4
FOND DU LAC    CLEAR     61  57  87 S6        29.93R
SHEBOYGAN      CLEAR     56  56 100 CALM      29.94S FOG
WEST BEND      FOG       54  54 100 CALM      29.93F VSB 1/4
JUNEAU         CLOUDY    63  62  96 E8        29.93S FOG
$$

LSZ147-162-200500-
LAKE SUPERIOR

STATION/POSITION TIME  TEMP    WIND        PRES    WAVE
                       AIR SEA DIR/SP/G            HT/PER
                 (UTC) (F)     (DEG/KT/KT) (MB)    (FT/S)
W MID LAKE BUOY  0350   61 56  130/ 16/ 17 1009.9F   2/ 4
DEVILS ISLAND    0400   64     120/ 13/ 16 1009.1S
PORT WING        0230   65     130/  4/  8 1008.1F
SAXON HARBOR     0340   68     180/  8/ 16 1008.5F
$$

LMZ867-665-643>646-200500-
LAKE MICHIGAN

STATION/POSITION TIME  TEMP    WIND        PRES    WAVE
                       AIR SEA DIR/SP/G            HT/PER
                 (UTC) (F)     (DEG/KT/KT) (MB)    (FT/S)
S GREEN BAY BUOY 0200   64 67   90/ 10/ 12 1014.1
N MID LAKE BUOY  0350   66 65  110/ 14/ 14 1014.6F   1/ 3
NORTHPORT PIER   0340   65      90/  9/ 13 1013.9F
KEWAUNEE LAKESHO 0342   61     290/  1/  2 1013.0F
SHEBOYGAN LAKESH 0400   66     100/ 10/ 11 1013.3F
PORT WASHINGTON  0330   67     110/  5/  6 1014.6S
ATWATER BUOY     0309   67 68  110/  4/  6 1014.1R
MILWAUKEE LAKESH 0350   66      90/  6/  7   N/A
S MID LAKE BUOY  0350   69 69   70/ 10/ 10 1013.7R   1
KENOSHA   LAKESH 0400   67      90/  4/  4 1013.9
$$

TC  - TEMPERATURE IN CELSIUS
VSB - VISIBILITY IN STATUTE MILES
WCI - WIND CHILL INDEX
HX  - HEAT INDEX





USA.gov is the U.S. government's official web portal to all federal, state and local government web resources and services.